Regional Weather Roundup
Issued by NWS

Home | Current Version | Previous Version | Text Only | Print | Product List | Glossary On
Versions: 1 2 3 4 5 6 7 8 9 10 11 12 13 14 15 16 17 18 19 20 21 22 23 24 25 26 27 28 29 30 31 32 33 34 35 36 37 38 39 40 41 42 43 44 45 46 47 48 49 50
000
ASUS43 KDTX 210110
RWRMI
MICHIGAN HOURLY REGIONAL WEATHER ROUNDUP
NATIONAL WEATHER SERVICE DETROIT/PONTIAC MI
800 PM EST SAT DEC 20 2014

NOTE: "FAIR" INDICATES FEW OR NO CLOUDS BELOW 12,000 FEET WITH NO
SIGNIFICANT WEATHER AND/OR OBSTRUCTION TO VISIBILITY.

MIZ047>049-052>055-059>063-066>070-074>076-081>083-210200-
SOUTHEAST LOWER MICHIGAN

CITY           SKY/WX    TMP DP  RH WIND       PRES   REMARKS
ADRIAN         CLOUDY    29  23  78 CALM      30.29R
ALMA           CLOUDY    26  24  93 CALM      30.28S
ANN ARBOR      CLOUDY    29  23  78 SE3       30.28R
BAD AXE        MOCLDY    26  23  89 CALM      30.29S
CARO           CLOUDY    27  23  84 CALM      30.28F
DETROIT CITY   CLOUDY    32  22  66 S3        30.30R
DETROIT        CLOUDY    30  23  75 S3        30.30R
FLINT          CLOUDY    30  22  72 CALM      30.28S
GROSSE ILE     CLOUDY    30  23  74 CALM      30.29R
HILLSDALE      PTCLDY    24  22  90 CALM      30.26R
HOWELL         CLOUDY    28  23  81 CALM      30.27R

CITY           SKY/WX    TMP DP  RH WIND       PRES   REMARKS
JACKSON        PTCLDY    26  21  81 E3        30.27R
LAMBERTVILLE   CLOUDY    32  27  80 CALM      30.29S
LANSING        PTCLDY    26  20  77 CALM      30.28S
LAPEER         CLOUDY    28  24  84 CALM      30.28S
MASON          CLOUDY    28  23  80 CALM      30.27S
MONROE         CLOUDY    28  25  86 CALM      30.28S
MT. CLEMENS    CLOUDY    29  23  76 CALM      30.27S
PONTIAC        CLOUDY    28  20  71 CALM      30.27R
PORT HOPE        N/A     26  20  77 CALM      30.28S
PORT HURON     CLOUDY    28  23  80 CALM      30.29S
TRI CITIES     MOCLDY    28  23  81 CALM      30.29S
TROY           CLOUDY    32  20  62 CALM      30.30S
SAGINAW HB     MOCLDY    28  27  93 CALM      30.29S
$$
MIZ043>046-050>051-056>058-064>065-071>073-077>080-210200-
SOUTHWEST LOWER MICHIGAN

CITY           SKY/WX    TMP DP  RH WIND       PRES   REMARKS
BATTLE CREEK   CLOUDY    31  23  72 CALM      30.27R
BENTON HARBOR  CLOUDY    31  26  82 S5        30.28S WCI  26
BIG RAPIDS     CLOUDY    30  26  86 CALM      30.24S
COLDWATER      CLOUDY    30  25  83 CALM      30.27R
FREMONT        CLOUDY    29  28  98 SE3       30.25S FOG
HOLLAND        CLOUDY    31  27  85 SE8       30.27S FOG     WCI  23
GRAND RAPIDS   LGT SNOW  30  25  81 S5        30.27R WCI  25
IONIA          CLOUDY    30  25  81 SE6       30.26S WCI  24
KALAMAZOO      CLOUDY    30  27  88 SW3       30.28R FOG
LUDINGTON      CLOUDY    31  27  84 SE5       30.26R WCI  26
MARSHALL       CLOUDY    27  23  85 CALM      30.26S
MOUNT PLEASANT MOCLDY    22  21  95 CALM      30.27S FOG
MUSKEGON       CLOUDY    30  25  81 SE6       30.27R WCI  24
SOUTH HAVEN    CLOUDY    32  28  84 CALM      30.27S
$$
MIZ016>042-210200-
NORTHERN LOWER MICHIGAN

CITY           SKY/WX    TMP DP  RH WIND       PRES   REMARKS
ALPENA         CLOUDY    26  21  81 CALM      30.29R
BEAVER ISLAND  CLOUDY    29  26  86 S3        30.25S
BELLAIRE       CLOUDY    28  23  83 CALM      30.27S
CADILLAC       CLOUDY    26  22  84 E3        30.22S
CHARLEVOIX     CLOUDY    28  24  85 SE6       30.28S WCI  21
FRANKFORT      CLOUDY    29  24  81 SE3       30.25S
GAYLORD        CLOUDY    23  19  85 CALM      30.23R
GRAYLING       CLOUDY    17  16  96 CALM      30.26S
HARBOR SPRINGS MOCLDY    24  19  81 NE3       30.26S
HOUGHTON LAKE  MOCLDY    18  16  92 CALM      30.25S
MANISTEE       CLOUDY    28  21  74 E3        30.26S
OSCODA         CLOUDY    24  22  93 CALM      30.28S
PELLSTON       MOCLDY    17  15  92 CALM      30.27S
ROGERS CITY    MOCLDY    19  17  92 CALM      30.29S
TRAVERSE CITY  CLOUDY    29  22  75 S3        30.25S
$$
MIZ007>008-015-210200-
EASTERN UPPER MICHIGAN

CITY           SKY/WX    TMP DP  RH WIND       PRES   REMARKS
KINROSS        CLOUDY    25  21  86 SE5       30.26S WCI  19
MACKINAC ISLAN MOCLDY    26  21  83 SE5       30.26S WCI  20
NEWBERRY       CLOUDY    24  22  94 SE3       30.23S
S. S. MARIE    CLOUDY    24  18  77 CALM      30.25F
MUNISING         N/A     30  22  72 S7        30.22S WCI  23
$$
MIZ004>006-011>014-085-210200-
CENTRAL UPPER MICHIGAN

CITY           SKY/WX    TMP DP  RH WIND       PRES   REMARKS
MANISTIQUE     MOCLDY    24  23  96 CALM      30.23S
ESCANABA       CLOUDY    28  21  74 CALM      30.23S
MENOMINEE      CLOUDY    28  25  86 CALM      30.23R
SAWYER-GWINN   CLOUDY    27  23  86 S6        30.18S WCI  20
$$
MIZ001>003-009>011-084-210200-
WESTERN UPPER MICHIGAN

CITY           SKY/WX    TMP DP  RH WIND       PRES   REMARKS
IRON MOUNTAIN  CLOUDY    27  23  85 SE5       30.18R WCI  22
HOUGHTON       CLOUDY    27  24  89 S5        30.14S WCI  22
COPPER HARBOR    N/A     30  24  78 SW7       30.16F WCI  23
IRONWOOD       CLOUDY    30  27  86 S6        30.10S WCI  24
$$

ABBREVIATIONS USED IN REMARKS
   TC - TEMPERATURE IN CELSIUS
  WCI - WIND CHILL INDEX
   HX - HEAT INDEX
  VSB - VISIBILITY




USA.gov is the U.S. government's official web portal to all federal, state and local government web resources and services.